Showing default

YAM-16, 68992

Orbit data source: Space-Track

YAM-16, 68992 is an American payload satellite in SSO that was launched on Sun, 03 May 2026 UTC via an FALCON 9 launch vehicle from the Air Force Western Test Range (AFWTR). Payload-class satellites include a variety of spacecraft equipped with specific instruments for various scientific and technological missions. These include communications satellites like Starlink; space stations such as the ISS; scientific satellites like the Hubble; Earth observation satellites from companies like Planet Labs, Umbra, and HawkEye 360; GPS; miniature CubeSats for education and research; and military/defense satellites.

Loading next visibility...
Identifier
68992, 2026-100N
Orbit
SSO
Country
Flag of USUS
Related business
Manufacturer
Airbus/Toulouse
Mission
Operational spacecraft
Bus & Motor
ARROW, Unknown motor
Mass
~150 kg wet, ~140 kg dry
Launch date (UTC)
2026-05-03 (1 month ago)
Launch vehicle
FALCON 9
Launch site
Air Force Western Test Range (AFWTR)
Object type
Payload
Rocket body
Debris
Shape & HBR
Unknown shape, 14.5 m
Radar Cross Section
Large (>1 m²)

Expand to show TLE details & history
Last TLE update: 11 hours ago

TLE from 11 hours ago
0 YAM-16
1 68992U 26100N   26168.62093579  .00001141  00000-0  11970-3 0  9995
2 68992  97.7369  66.0505 0004413 125.0879 235.0754 14.91438431  6766
Epoch: 2026-06-17T14:54Z
TLE epoch observation values (Epoch: 2026-06-17T14:54:08.852Z)
Latitude
-0°
Longitude
-63.36238°
Altitude
598.254 km
Speed
7.56 km/s
True Right ascension
04h 24m 12s
True Declination
0° 00' 00"
Sunlit
Object was in daylight at epoch
Visualization orbit readout
Latitude
Unknown
Longitude
Unknown
Altitude
Unknown
Speed
Unknown
Apparent Right ascension
Unknown
Apparent Declination
Unknown
Sunlit
N/A
Visualization observer readout
Local Sidereal Time
12:56:25
Azimuth
Unknown
Elevation
Unknown
Doppler factor
Unknown
Orbital elements
Apogee altitude
593.543 km
Perigee altitude
587.393 km
Semi-major axis
6,968.605 km
Eccentricity
0.00044
Inclination
97.7369°
RAAN
66.0505°
Arg. of periapsis
125.0879°
True anomaly
235.03395°
Mean anomaly
235.0754°
Eccentric anomaly
235.05467°
Mean motion
3.73099 °/min
Orbital period
96.49 mins
BSTAR
0.0001197
Loading maneuver chart data...
Computing Atmospheric mass density...
Loading historical data...
Loading historical data...
Loading historical data...
Loading historical data...
Loading historical data...
Loading historical data...
Loading historical data...

Documentation

Showing up to 5 results
|